Time,TemperatureF,DewpointF,PressureIn,WindDirection,WindDirectionDegrees,WindSpeedMPH,WindSpeedGustMPH,Humidity,HourlyPrecipIn,Conditions,Clouds,dailyrainin,SoftwareType,DateUTC
2013-02-08 00:00:00,19.1,3.5,30.33,ENE,58,16.1,16.1,50,0.00,BKN,OVC,0.00,WeatherDisplay:10.37,2013-02-08 05:00:00,
2013-02-08 00:01:00,19.1,3.5,30.33,NE,52,15.0,15.0,50,0.00,BKN,OVC,0.00,WeatherDisplay:10.37,2013-02-08 05:01:00,
2013-02-08 00:06:00,19.0,3.4,30.33,ENE,74,19.6,19.6,50,0.00,BKN,OVC,0.00,WeatherDisplay:10.37,2013-02-08 05:06:00,
2013-02-08 00:11:00,18.9,3.3,30.33,ENE,61,11.5,11.5,50,0.00,BKN,OVC,0.00,WeatherDisplay:10.37,2013-02-08 05:11:00,
2013-02-08 00:16:00,19.0,3.4,30.33,ENE,66,11.5,11.5,50,0.00,BKN,OVC,0.00,WeatherDisplay:10.37,2013-02-08 05:16:00,
2013-02-08 00:21:00,18.9,3.3,30.33,ENE,59,13.8,13.8,50,0.00,BKN,OVC,0.00,WeatherDisplay:10.37,2013-02-08 05:21:00,
2013-02-08 00:26:00,18.9,3.3,30.33,NE,49,12.7,12.7,50,0.00,BKN,OVC,0.00,WeatherDisplay:10.37,2013-02-08 05:26:00,
2013-02-08 00:31:00,18.9,3.3,30.33,ENE,72,13.8,13.8,50,0.00,BKN,OVC,0.00,WeatherDisplay:10.37,2013-02-08 05:31:00,
2013-02-08 00:36:00,18.9,3.3,30.33,NE,55,12.7,12.7,50,0.00,BKN,OVC,0.00,WeatherDisplay:10.37,2013-02-08 05:36:00,
2013-02-08 00:41:00,18.8,3.2,30.33,ENE,68,18.4,18.4,50,0.00,BKN,OVC,0.00,WeatherDisplay:10.37,2013-02-08 05:41:00,
2013-02-08 00:46:00,18.8,3.2,30.33,NE,47,16.1,16.1,50,0.00,BKN,OVC,0.00,WeatherDisplay:10.37,2013-02-08 05:46:00,
2013-02-08 00:51:00,19.0,3.4,30.33,ENE,66,15.0,15.0,50,0.00,BKN,OVC,0.00,WeatherDisplay:10.37,2013-02-08 05:51:00,
2013-02-08 00:56:00,18.8,3.2,30.33,ENE,59,19.6,19.6,50,0.00,BKN,OVC,0.00,WeatherDisplay:10.37,2013-02-08 05:56:00,
2013-02-08 01:01:00,19.0,3.4,30.33,NE,53,19.6,0.0,50,0.00,BKN,OVC,0.00,WeatherDisplay:10.37,2013-02-08 06:01:00,
2013-02-08 01:06:00,19.1,3.5,30.33,East,85,16.1,16.1,50,0.00,BKN,OVC,0.00,WeatherDisplay:10.37,2013-02-08 06:06:00,
2013-02-08 01:11:00,19.1,3.5,30.33,ENE,60,16.1,16.1,50,0.00,BKN,OVC,0.00,WeatherDisplay:10.37,2013-02-08 06:11:00,
2013-02-08 01:16:00,19.0,3.4,30.33,East,84,17.3,17.3,50,0.00,BKN,OVC,0.00,WeatherDisplay:10.37,2013-02-08 06:16:00,
2013-02-08 01:21:00,19.2,3.6,30.33,East,87,16.1,16.1,50,0.00,BKN,OVC,0.00,WeatherDisplay:10.37,2013-02-08 06:21:00,
2013-02-08 01:26:00,19.1,3.5,30.33,ENE,64,18.4,18.4,50,0.00,BKN,OVC,0.00,WeatherDisplay:10.37,2013-02-08 06:26:00,
2013-02-08 01:31:00,19.3,3.7,30.33,ENE,68,17.3,17.3,50,0.00,BKN,OVC,0.00,WeatherDisplay:10.37,2013-02-08 06:31:00,
2013-02-08 01:36:00,19.3,3.7,30.33,ENE,62,21.9,21.9,50,0.00,BKN,OVC,0.00,WeatherDisplay:10.37,2013-02-08 06:36:00,
2013-02-08 01:41:00,19.4,3.8,30.33,ENE,67,18.4,18.4,50,0.00,BKN,OVC,0.00,WeatherDisplay:10.37,2013-02-08 06:41:00,
2013-02-08 01:46:00,19.4,3.8,30.33,ENE,59,17.3,17.3,50,0.00,BKN,OVC,0.00,WeatherDisplay:10.37,2013-02-08 06:46:00,
2013-02-08 01:51:00,19.9,4.2,30.33,ENE,78,20.0,20.0,50,0.00,BKN,OVC,0.00,WeatherDisplay:10.37,2013-02-08 06:51:00,
2013-02-08 01:56:00,19.7,4.0,30.33,ENE,70,19.6,19.6,50,0.00,BKN,OVC,0.00,WeatherDisplay:10.37,2013-02-08 06:56:00,
2013-02-08 02:01:00,19.9,4.2,30.33,ENE,63,24.2,24.2,50,0.00,BKN,OVC,0.00,WeatherDisplay:10.37,2013-02-08 07:01:00,
2013-02-08 02:06:00,19.6,3.9,30.33,ENE,72,15.0,15.0,50,0.00,BKN,OVC,0.00,WeatherDisplay:10.37,2013-02-08 07:06:00,
2013-02-08 02:11:00,19.6,3.9,30.33,East,95,18.4,18.4,50,0.00,BKN,OVC,0.00,WeatherDisplay:10.37,2013-02-08 07:11:00,
2013-02-08 02:16:00,19.6,3.9,30.33,East,83,17.3,17.3,50,0.00,BKN,OVC,0.00,WeatherDisplay:10.37,2013-02-08 07:16:00,
2013-02-08 02:21:00,19.4,3.8,30.33,ENE,68,17.3,17.3,50,0.00,BKN,OVC,0.00,WeatherDisplay:10.37,2013-02-08 07:21:00,
2013-02-08 02:26:00,19.4,3.8,30.33,ENE,67,19.6,19.6,50,0.00,BKN,OVC,0.00,WeatherDisplay:10.37,2013-02-08 07:26:00,
2013-02-08 02:31:00,19.4,3.8,30.33,East,80,18.4,18.4,50,0.00,BKN,OVC,0.00,WeatherDisplay:10.37,2013-02-08 07:31:00,
2013-02-08 02:36:00,19.2,3.6,30.33,ENE,69,21.9,21.9,50,0.00,BKN,OVC,0.00,WeatherDisplay:10.37,2013-02-08 07:36:00,
2013-02-08 02:41:00,19.3,3.7,30.33,NE,44,19.6,19.6,50,0.00,BKN,OVC,0.00,WeatherDisplay:10.37,2013-02-08 07:41:00,
2013-02-08 02:46:00,19.5,3.9,30.33,ENE,73,18.4,18.4,50,0.00,BKN,OVC,0.00,WeatherDisplay:10.37,2013-02-08 07:46:00,
2013-02-08 02:51:00,19.3,3.7,30.33,NE,46,19.0,19.0,50,0.00,BKN,OVC,0.00,WeatherDisplay:10.37,2013-02-08 07:51:00,
2013-02-08 02:56:00,19.5,3.9,30.33,ENE,65,19.6,19.6,50,0.00,BKN,OVC,0.00,WeatherDisplay:10.37,2013-02-08 07:56:00,
2013-02-08 03:01:00,19.6,3.9,30.33,NE,54,19.6,19.6,50,0.00,BKN,OVC,0.00,WeatherDisplay:10.37,2013-02-08 08:01:00,
2013-02-08 03:06:00,19.6,3.9,30.33,East,82,16.1,16.1,50,0.00,BKN,OVC,0.00,WeatherDisplay:10.37,2013-02-08 08:06:00,
2013-02-08 03:11:00,19.8,4.1,30.33,ENE,65,19.6,19.6,50,0.00,BKN,OVC,0.00,WeatherDisplay:10.37,2013-02-08 08:11:00,
2013-02-08 03:16:00,19.7,4.0,30.33,NE,50,16.1,16.1,50,0.00,BKN,OVC,0.00,WeatherDisplay:10.37,2013-02-08 08:16:00,
2013-02-08 03:21:00,19.8,4.1,30.33,NE,54,18.4,18.4,50,0.00,BKN,OVC,0.00,WeatherDisplay:10.37,2013-02-08 08:21:00,
2013-02-08 03:26:00,20.1,4.4,30.33,ENE,74,16.1,16.1,50,0.00,BKN,OVC,0.00,WeatherDisplay:10.37,2013-02-08 08:26:00,
2013-02-08 03:31:00,20.1,4.4,30.33,NE,54,17.3,17.3,50,0.00,BKN,OVC,0.00,WeatherDisplay:10.37,2013-02-08 08:31:00,
2013-02-08 03:36:00,20.1,4.4,30.33,East,81,19.6,19.6,50,0.00,BKN,OVC,0.00,WeatherDisplay:10.37,2013-02-08 08:36:00,
2013-02-08 03:41:00,20.2,4.5,30.33,NE,56,15.0,15.0,50,0.00,BKN,OVC,0.00,WeatherDisplay:10.37,2013-02-08 08:41:00,
2013-02-08 03:46:00,20.3,4.6,30.33,ENE,58,16.1,16.1,50,0.00,BKN,OVC,0.00,WeatherDisplay:10.37,2013-02-08 08:46:00,
2013-02-08 03:51:00,20.5,4.8,30.33,ENE,58,17.3,17.3,50,0.00,BKN,OVC,0.00,WeatherDisplay:10.37,2013-02-08 08:51:00,
2013-02-08 03:56:00,20.5,4.8,30.33,East,89,18.4,18.4,50,0.00,BKN,OVC,0.00,WeatherDisplay:10.37,2013-02-08 08:56:00,
2013-02-08 04:01:00,20.7,5.0,30.33,East,81,17.3,17.3,50,0.00,BKN,OVC,0.00,WeatherDisplay:10.37,2013-02-08 09:01:00,
2013-02-08 04:06:00,20.7,5.0,30.33,ENE,61,15.0,15.0,50,0.00,BKN,OVC,0.00,WeatherDisplay:10.37,2013-02-08 09:06:00,
2013-02-08 04:11:00,20.6,4.9,30.33,East,93,17.0,17.0,50,0.00,BKN,OVC,0.00,WeatherDisplay:10.37,2013-02-08 09:11:00,
2013-02-08 04:16:00,20.7,5.0,30.33,East,79,18.4,18.4,50,0.00,BKN,OVC,0.00,WeatherDisplay:10.37,2013-02-08 09:16:00,
2013-02-08 04:21:00,20.7,5.0,30.33,ENE,65,15.0,15.0,50,0.00,BKN,OVC,0.00,WeatherDisplay:10.37,2013-02-08 09:21:00,
2013-02-08 04:26:00,20.8,5.1,30.33,NE,56,19.6,19.6,50,0.00,BKN,OVC,0.00,WeatherDisplay:10.37,2013-02-08 09:26:00,
2013-02-08 04:31:00,20.9,5.2,30.33,East,81,13.8,13.8,50,0.00,BKN,OVC,0.00,WeatherDisplay:10.37,2013-02-08 09:31:00,
2013-02-08 04:36:00,20.9,5.2,30.33,NE,53,18.4,18.4,50,0.00,BKN,OVC,0.00,WeatherDisplay:10.37,2013-02-08 09:36:00,
2013-02-08 04:41:00,21.0,5.2,30.33,ENE,69,16.1,16.1,50,0.00,BKN,OVC,0.00,WeatherDisplay:10.37,2013-02-08 09:41:00,
2013-02-08 04:46:00,20.9,5.2,30.33,East,81,19.6,19.6,50,0.00,BKN,OVC,0.00,WeatherDisplay:10.37,2013-02-08 09:46:00,
2013-02-08 04:51:00,20.9,5.2,30.33,ENE,73,16.1,16.1,50,0.00,BKN,OVC,0.00,WeatherDisplay:10.37,2013-02-08 09:51:00,
2013-02-08 04:56:00,20.8,5.1,30.33,East,93,17.3,17.3,50,0.00,BKN,OVC,0.00,WeatherDisplay:10.37,2013-02-08 09:56:00,
2013-02-08 05:01:00,20.8,5.1,30.33,ENE,60,19.6,19.6,50,0.00,BKN,OVC,0.00,WeatherDisplay:10.37,2013-02-08 10:01:00,
2013-02-08 05:06:00,20.7,5.0,30.33,East,97,19.6,19.6,50,0.00,BKN,OVC,0.00,WeatherDisplay:10.37,2013-02-08 10:06:00,
2013-02-08 05:11:00,20.5,4.8,30.33,ENE,74,19.6,19.6,50,0.00,BKN,OVC,0.00,WeatherDisplay:10.37,2013-02-08 10:11:00,
2013-02-08 05:16:00,20.4,4.7,30.33,ENE,64,17.0,17.0,50,0.00,BKN,OVC,0.00,WeatherDisplay:10.37,2013-02-08 10:16:00,
2013-02-08 05:21:00,20.4,4.7,30.33,ENE,73,19.6,19.6,50,0.00,BKN,OVC,0.00,WeatherDisplay:10.37,2013-02-08 10:21:00,
2013-02-08 05:26:00,20.5,4.8,30.33,ENE,73,18.0,18.0,50,0.00,BKN,OVC,0.00,WeatherDisplay:10.37,2013-02-08 10:26:00,
2013-02-08 05:31:00,20.4,4.7,30.33,East,83,16.1,16.1,50,0.00,BKN,OVC,0.00,WeatherDisplay:10.37,2013-02-08 10:31:00,
2013-02-08 05:36:00,20.4,4.7,30.33,ENE,73,16.1,16.1,50,0.00,BKN,OVC,0.00,WeatherDisplay:10.37,2013-02-08 10:36:00,
2013-02-08 05:41:00,20.3,4.6,30.33,East,97,18.4,18.4,50,0.00,BKN,OVC,0.00,WeatherDisplay:10.37,2013-02-08 10:41:00,
2013-02-08 05:46:00,20.1,4.4,30.33,East,86,18.4,18.4,50,0.00,BKN,OVC,0.00,WeatherDisplay:10.37,2013-02-08 10:46:00,
2013-02-08 05:51:00,20.1,4.4,30.33,NE,52,18.4,18.4,50,0.00,BKN,OVC,0.00,WeatherDisplay:10.37,2013-02-08 10:51:00,
2013-02-08 05:56:00,20.4,4.7,30.33,ENE,59,19.6,19.6,50,0.00,BKN,OVC,0.00,WeatherDisplay:10.37,2013-02-08 10:56:00,
2013-02-08 06:53:00,20.5,4.8,30.33,East,85,20.7,0.0,50,0.00,CLR,OVC,0.00,WeatherDisplay:10.37,2013-02-08 11:53:00,
2013-02-08 06:58:00,20.5,4.8,30.33,East,79,20.7,20.7,50,0.00,BKN,OVC,0.00,WeatherDisplay:10.37,2013-02-08 11:58:00,
2013-02-08 07:03:00,20.6,4.9,30.33,East,80,24.2,24.2,50,0.00,BKN,OVC,0.00,WeatherDisplay:10.37,2013-02-08 12:03:00,
2013-02-08 07:08:00,20.4,4.7,30.33,ENE,67,19.6,19.6,50,0.00,BKN,OVC,0.00,WeatherDisplay:10.37,2013-02-08 12:08:00,
2013-02-08 07:13:00,20.7,5.0,30.33,ENE,77,23.0,23.0,50,0.00,BKN,OVC,0.00,WeatherDisplay:10.37,2013-02-08 12:13:00,
2013-02-08 07:18:00,20.5,4.8,30.33,ENE,57,19.6,19.6,50,0.00,BKN,OVC,0.00,WeatherDisplay:10.37,2013-02-08 12:18:00,
2013-02-08 07:23:00,20.3,4.6,30.33,ENE,65,15.0,15.0,50,0.00,BKN,OVC,0.00,WeatherDisplay:10.37,2013-02-08 12:23:00,
2013-02-08 07:28:00,20.4,4.7,30.33,ENE,65,19.6,19.6,50,0.00,BKN,OVC,0.00,WeatherDisplay:10.37,2013-02-08 12:28:00,
2013-02-08 07:33:00,20.4,4.7,30.33,NE,45,20.7,20.7,50,0.00,BKN,OVC,0.00,WeatherDisplay:10.37,2013-02-08 12:33:00,
2013-02-08 07:38:00,20.4,4.7,30.33,NE,56,20.7,20.7,50,0.00,BKN,OVC,0.00,WeatherDisplay:10.37,2013-02-08 12:38:00,
2013-02-08 07:43:00,20.4,4.7,30.33,NE,47,18.4,18.4,50,0.00,BKN,OVC,0.00,WeatherDisplay:10.37,2013-02-08 12:43:00,
2013-02-08 07:48:00,20.5,4.8,30.33,ENE,77,12.7,12.7,50,0.00,BKN,OVC,0.00,WeatherDisplay:10.37,2013-02-08 12:48:00,
2013-02-08 07:53:00,20.5,4.8,30.33,ENE,68,15.0,15.0,50,0.00,BKN,OVC,0.00,WeatherDisplay:10.37,2013-02-08 12:53:00,
2013-02-08 07:58:00,20.6,4.9,30.33,ENE,71,16.1,16.1,50,0.00,BKN,OVC,0.00,WeatherDisplay:10.37,2013-02-08 12:58:00,
2013-02-08 08:03:00,20.6,4.9,30.33,ENE,67,16.1,16.1,50,0.00,BKN,OVC,0.00,WeatherDisplay:10.37,2013-02-08 13:03:00,
2013-02-08 08:08:00,20.7,5.0,30.33,ENE,69,14.0,14.0,50,0.00,BKN,OVC,0.00,WeatherDisplay:10.37,2013-02-08 13:08:00,
2013-02-08 08:13:00,20.8,5.1,30.33,NE,55,16.1,16.1,50,0.00,BKN,OVC,0.00,WeatherDisplay:10.37,2013-02-08 13:13:00,
2013-02-08 08:18:00,20.8,5.1,30.33,NE,48,13.8,13.8,50,0.00,BKN,OVC,0.00,WeatherDisplay:10.37,2013-02-08 13:18:00,
2013-02-08 08:23:00,20.6,4.9,30.33,NE,44,13.8,13.8,50,0.00,BKN,OVC,0.00,WeatherDisplay:10.37,2013-02-08 13:23:00,
2013-02-08 08:28:00,20.5,4.8,30.33,NE,42,11.5,11.5,50,0.00,BKN,OVC,0.00,WeatherDisplay:10.37,2013-02-08 13:28:00,
2013-02-08 08:33:00,20.6,4.9,30.33,NE,40,19.6,19.6,50,0.00,BKN,OVC,0.00,WeatherDisplay:10.37,2013-02-08 13:33:00,
2013-02-08 08:38:00,20.6,4.9,30.33,NE,39,17.3,17.3,50,0.00,BKN,OVC,0.00,WeatherDisplay:10.37,2013-02-08 13:38:00,
2013-02-08 08:43:00,20.7,5.0,30.33,NE,39,11.5,11.5,50,0.00,BKN,OVC,0.00,WeatherDisplay:10.37,2013-02-08 13:43:00,
2013-02-08 08:48:00,20.6,4.9,30.33,NE,38,10.4,10.4,50,0.00,BKN,OVC,0.00,WeatherDisplay:10.37,2013-02-08 13:48:00,
2013-02-08 08:53:00,20.1,4.4,30.33,NE,38,17.3,17.3,50,0.00,BKN,OVC,0.00,WeatherDisplay:10.37,2013-02-08 13:53:00,
2013-02-08 08:58:00,19.7,4.0,30.33,NE,38,12.7,12.7,50,0.00,BKN,OVC,0.00,WeatherDisplay:10.37,2013-02-08 13:58:00,
2013-02-08 09:03:00,19.2,3.6,30.33,NE,37,15.0,15.0,50,0.00,BKN,OVC,0.00,WeatherDisplay:10.37,2013-02-08 14:03:00,
2013-02-08 09:08:00,19.1,3.5,30.33,NE,37,11.5,11.5,50,0.00,BKN,OVC,0.00,WeatherDisplay:10.37,2013-02-08 14:08:00,
2013-02-08 09:13:00,18.8,3.2,30.33,NE,37,13.8,13.8,50,0.00,BKN,OVC,0.00,WeatherDisplay:10.37,2013-02-08 14:13:00,
2013-02-08 09:18:00,18.9,3.3,30.33,NE,36,12.7,12.7,50,0.00,BKN,OVC,0.00,WeatherDisplay:10.37,2013-02-08 14:18:00,
2013-02-08 09:23:00,18.5,2.9,30.33,NNE,32,17.0,17.0,50,0.00,BKN,OVC,0.00,WeatherDisplay:10.37,2013-02-08 14:23:00,
2013-02-08 09:28:00,18.6,3.0,30.33,NNE,32,12.0,12.0,50,0.00,BKN,OVC,0.00,WeatherDisplay:10.37,2013-02-08 14:28:00,
2013-02-08 09:33:00,18.5,2.9,30.33,NE,37,16.1,16.1,50,0.00,BKN,OVC,0.00,WeatherDisplay:10.37,2013-02-08 14:33:00,
2013-02-08 09:38:00,18.6,3.0,30.33,NE,35,11.5,11.5,50,0.00,BKN,OVC,0.00,WeatherDisplay:10.37,2013-02-08 14:38:00,
2013-02-08 09:43:00,18.4,2.8,30.33,NE,47,13.8,13.8,50,0.00,BKN,OVC,0.00,WeatherDisplay:10.37,2013-02-08 14:43:00,
2013-02-08 09:48:00,18.5,2.9,30.33,NE,35,11.5,11.5,50,0.00,BKN,OVC,0.00,WeatherDisplay:10.37,2013-02-08 14:48:00,
2013-02-08 09:53:00,18.4,2.8,30.33,NNE,33,9.2,9.7,50,0.00,BKN,OVC,0.00,WeatherDisplay:10.37,2013-02-08 14:53:00,
2013-02-08 09:58:00,18.3,2.7,30.33,NE,40,15.0,15.0,50,0.00,BKN,OVC,0.00,WeatherDisplay:10.37,2013-02-08 14:58:00,
2013-02-08 10:03:00,18.5,2.9,30.33,NE,34,13.8,13.8,50,0.00,BKN,OVC,0.00,WeatherDisplay:10.37,2013-02-08 15:03:00,
2013-02-08 10:08:00,18.4,2.8,30.33,NE,34,13.0,13.0,50,0.00,BKN,OVC,0.00,WeatherDisplay:10.37,2013-02-08 15:08:00,
2013-02-08 10:13:00,18.4,2.8,30.33,NE,36,16.1,16.1,50,0.00,BKN,OVC,0.00,WeatherDisplay:10.37,2013-02-08 15:13:00,
2013-02-08 10:18:00,18.4,2.8,30.33,NNE,30,16.1,16.1,50,0.00,BKN,OVC,0.00,WeatherDisplay:10.37,2013-02-08 15:18:00,
2013-02-08 10:23:00,18.3,2.7,30.33,NE,36,16.1,16.1,50,0.00,BKN,OVC,0.00,WeatherDisplay:10.37,2013-02-08 15:23:00,
2013-02-08 10:28:00,18.2,2.6,30.33,NE,34,13.8,13.8,50,0.00,BKN,OVC,0.00,WeatherDisplay:10.37,2013-02-08 15:28:00,
2013-02-08 10:33:00,18.2,2.6,30.33,NE,47,16.1,16.1,50,0.00,BKN,OVC,0.00,WeatherDisplay:10.37,2013-02-08 15:33:00,
2013-02-08 10:38:00,18.2,2.6,30.33,NE,38,11.5,11.5,50,0.00,BKN,OVC,0.00,WeatherDisplay:10.37,2013-02-08 15:38:00,
2013-02-08 10:43:00,18.3,2.7,30.33,NNE,30,11.5,11.5,50,0.00,BKN,OVC,0.00,WeatherDisplay:10.37,2013-02-08 15:43:00,
2013-02-08 10:48:00,18.3,2.7,30.33,NNE,32,10.4,11.0,50,0.00,BKN,OVC,0.00,WeatherDisplay:10.37,2013-02-08 15:48:00,
2013-02-08 10:53:00,18.0,2.5,30.33,NE,36,16.1,16.1,50,0.00,BKN,OVC,0.00,WeatherDisplay:10.37,2013-02-08 15:53:00,
2013-02-08 10:58:00,18.1,2.6,30.33,NE,34,13.8,13.8,50,0.00,BKN,OVC,0.00,WeatherDisplay:10.37,2013-02-08 15:58:00,
2013-02-08 11:03:00,18.1,2.6,30.33,NNE,32,11.5,11.5,50,0.00,BKN,OVC,0.00,WeatherDisplay:10.37,2013-02-08 16:03:00,
2013-02-08 11:08:00,18.4,2.8,30.33,NE,35,14.0,14.0,50,0.00,BKN,OVC,0.00,WeatherDisplay:10.37,2013-02-08 16:08:00,
2013-02-08 11:13:00,18.3,2.7,30.33,NE,36,16.1,16.1,50,0.00,BKN,OVC,0.00,WeatherDisplay:10.37,2013-02-08 16:13:00,
2013-02-08 11:18:00,18.2,2.6,30.33,NNE,32,11.5,11.5,50,0.00,BKN,OVC,0.00,WeatherDisplay:10.37,2013-02-08 16:18:00,
2013-02-08 11:23:00,18.3,2.7,30.33,NE,34,12.0,12.0,50,0.00,BKN,OVC,0.00,WeatherDisplay:10.37,2013-02-08 16:23:00,
2013-02-08 11:28:00,18.3,2.7,30.33,NE,35,11.5,11.5,50,0.00,BKN,OVC,0.00,WeatherDisplay:10.37,2013-02-08 16:28:00,
2013-02-08 11:33:00,18.4,2.8,30.33,NNE,33,12.0,12.0,50,0.00,BKN,OVC,0.00,WeatherDisplay:10.37,2013-02-08 16:33:00,
2013-02-08 11:38:00,18.4,2.8,30.33,NNE,29,12.7,12.7,50,0.00,BKN,OVC,0.00,WeatherDisplay:10.37,2013-02-08 16:38:00,
2013-02-08 11:43:00,18.4,2.8,30.33,NE,34,15.0,15.0,50,0.00,BKN,OVC,0.00,WeatherDisplay:10.37,2013-02-08 16:43:00,
2013-02-08 11:48:00,18.5,2.9,30.33,NE,37,17.3,17.3,50,0.00,BKN,OVC,0.00,WeatherDisplay:10.37,2013-02-08 16:48:00,
2013-02-08 11:53:00,18.7,3.1,30.33,NE,40,11.5,11.5,50,0.00,BKN,OVC,0.00,WeatherDisplay:10.37,2013-02-08 16:53:00,
2013-02-08 11:58:00,18.8,3.2,30.33,NNE,31,11.5,11.5,50,0.00,BKN,OVC,0.00,WeatherDisplay:10.37,2013-02-08 16:58:00,
2013-02-08 12:03:00,18.7,3.1,30.33,NNE,31,13.0,13.0,50,0.00,BKN,OVC,0.00,WeatherDisplay:10.37,2013-02-08 17:03:00,
2013-02-08 12:08:00,19.1,3.5,30.33,NNE,28,15.0,15.0,50,0.00,BKN,OVC,0.00,WeatherDisplay:10.37,2013-02-08 17:08:00,
2013-02-08 12:13:00,19.0,3.4,30.33,NNE,33,11.5,11.5,50,0.00,BKN,OVC,0.00,WeatherDisplay:10.37,2013-02-08 17:13:00,
2013-02-08 12:18:00,19.2,3.6,30.33,NNE,19,12.7,12.7,50,0.00,BKN,OVC,0.00,WeatherDisplay:10.37,2013-02-08 17:18:00,
2013-02-08 12:23:00,19.3,3.7,30.33,NNE,23,10.4,10.4,50,0.00,BKN,OVC,0.00,WeatherDisplay:10.37,2013-02-08 17:23:00,
2013-02-08 12:28:00,19.3,3.7,30.33,NNE,21,15.0,15.0,50,0.00,BKN,OVC,0.00,WeatherDisplay:10.37,2013-02-08 17:28:00,
2013-02-08 12:33:00,19.6,3.9,30.33,NNE,25,12.7,12.7,50,0.00,BKN,OVC,0.00,WeatherDisplay:10.37,2013-02-08 17:33:00,
2013-02-08 12:38:00,19.7,4.0,30.33,NNE,20,17.3,17.3,50,0.00,BKN,OVC,0.00,WeatherDisplay:10.37,2013-02-08 17:38:00,
2013-02-08 12:43:00,19.7,4.0,30.33,NNE,18,17.3,17.3,50,0.00,BKN,OVC,0.00,WeatherDisplay:10.37,2013-02-08 17:43:00,
2013-02-08 12:48:00,20.0,4.3,30.33,NNE,22,15.0,15.0,50,0.00,BKN,OVC,0.00,WeatherDisplay:10.37,2013-02-08 17:48:00,
2013-02-08 12:53:00,19.9,4.2,30.33,NNE,25,16.1,16.1,50,0.00,BKN,OVC,0.00,WeatherDisplay:10.37,2013-02-08 17:53:00,
2013-02-08 12:58:00,20.0,4.3,30.33,NNE,26,13.8,13.8,50,0.00,BKN,OVC,0.00,WeatherDisplay:10.37,2013-02-08 17:58:00,
2013-02-08 13:03:00,19.9,4.2,30.33,NNE,33,15.0,15.0,50,0.00,BKN,OVC,0.00,WeatherDisplay:10.37,2013-02-08 18:03:00,
2013-02-08 13:08:00,20.0,4.3,30.33,NNE,29,18.4,18.4,50,0.00,BKN,OVC,0.00,WeatherDisplay:10.37,2013-02-08 18:08:00,
2013-02-08 13:13:00,19.6,3.9,30.33,NNE,31,17.3,17.3,50,0.00,BKN,OVC,0.00,WeatherDisplay:10.37,2013-02-08 18:13:00,
2013-02-08 13:18:00,19.8,4.1,30.33,NE,35,15.0,15.0,50,0.00,BKN,OVC,0.00,WeatherDisplay:10.37,2013-02-08 18:18:00,
2013-02-08 13:23:00,19.4,3.8,30.33,NNE,26,15.0,15.0,50,0.00,BKN,OVC,0.00,WeatherDisplay:10.37,2013-02-08 18:23:00,
2013-02-08 13:28:00,19.5,3.9,30.33,NNE,33,12.7,12.7,50,0.00,BKN,OVC,0.00,WeatherDisplay:10.37,2013-02-08 18:28:00,
2013-02-08 13:33:00,19.6,3.9,30.33,NNE,32,16.1,16.1,50,0.00,BKN,OVC,0.00,WeatherDisplay:10.37,2013-02-08 18:33:00,
2013-02-08 13:38:00,19.7,4.0,30.33,NNE,24,11.5,11.5,50,0.00,BKN,OVC,0.00,WeatherDisplay:10.37,2013-02-08 18:38:00,
2013-02-08 13:43:00,19.2,3.6,30.33,NNE,28,17.3,17.3,50,0.00,BKN,OVC,0.00,WeatherDisplay:10.37,2013-02-08 18:43:00,
2013-02-08 13:48:00,19.4,3.8,30.33,NNE,24,15.0,15.0,50,0.00,BKN,OVC,0.00,WeatherDisplay:10.37,2013-02-08 18:48:00,
2013-02-08 13:53:00,19.3,3.7,30.33,NNE,33,18.4,18.4,50,0.00,BKN,OVC,0.00,WeatherDisplay:10.37,2013-02-08 18:53:00,
2013-02-08 13:58:00,19.4,3.8,30.33,NE,34,15.0,15.0,50,0.00,BKN,OVC,0.00,WeatherDisplay:10.37,2013-02-08 18:58:00,
2013-02-08 14:03:00,19.1,3.5,30.33,NNE,27,16.1,16.1,50,0.00,BKN,OVC,0.00,WeatherDisplay:10.37,2013-02-08 19:03:00,
2013-02-08 14:08:00,19.2,3.6,30.33,NNE,26,15.0,15.0,50,0.00,BKN,OVC,0.00,WeatherDisplay:10.37,2013-02-08 19:08:00,
2013-02-08 14:13:00,19.2,3.6,30.33,NNE,16,15.0,15.0,50,0.00,BKN,OVC,0.00,WeatherDisplay:10.37,2013-02-08 19:13:00,
2013-02-08 14:18:00,18.9,3.3,30.33,NE,34,17.3,17.3,50,0.00,BKN,OVC,0.00,WeatherDisplay:10.37,2013-02-08 19:18:00,
2013-02-08 14:23:00,18.8,3.2,30.33,NNE,28,19.6,19.6,50,0.00,BKN,OVC,0.00,WeatherDisplay:10.37,2013-02-08 19:23:00,
2013-02-08 14:28:00,18.8,3.2,30.33,NNE,30,19.6,19.6,50,0.00,BKN,OVC,0.00,WeatherDisplay:10.37,2013-02-08 19:28:00,
2013-02-08 14:33:00,18.7,3.1,30.33,NNE,23,16.1,16.1,50,0.00,BKN,OVC,0.00,WeatherDisplay:10.37,2013-02-08 19:33:00,
2013-02-08 14:38:00,18.7,3.1,30.33,NNE,21,16.1,16.1,50,0.00,BKN,OVC,0.00,WeatherDisplay:10.37,2013-02-08 19:38:00,
2013-02-08 14:43:00,18.8,3.2,30.33,NNE,18,10.4,10.4,50,0.00,BKN,OVC,0.00,WeatherDisplay:10.37,2013-02-08 19:43:00,
2013-02-08 14:48:00,18.6,3.0,30.33,NNE,27,19.6,19.6,50,0.00,BKN,OVC,0.00,WeatherDisplay:10.37,2013-02-08 19:48:00,
2013-02-08 14:53:00,18.7,3.1,30.33,NNE,22,15.0,15.0,50,0.00,BKN,OVC,0.00,WeatherDisplay:10.37,2013-02-08 19:53:00,
2013-02-08 14:58:00,18.6,3.0,30.33,NNE,15,12.0,12.0,50,0.00,BKN,OVC,0.00,WeatherDisplay:10.37,2013-02-08 19:58:00,
2013-02-08 15:03:00,18.7,3.1,30.33,NNE,20,11.5,11.5,50,0.00,BKN,OVC,0.00,WeatherDisplay:10.37,2013-02-08 20:03:00,
2013-02-08 15:08:00,18.7,3.1,30.33,NNE,18,15.0,15.0,50,0.00,BKN,OVC,0.00,WeatherDisplay:10.37,2013-02-08 20:08:00,
2013-02-08 15:13:00,18.9,3.3,30.33,North,3,17.3,17.3,50,0.00,BKN,OVC,0.00,WeatherDisplay:10.37,2013-02-08 20:13:00,
2013-02-08 15:18:00,19.2,3.6,30.33,North,4,18.4,18.4,50,0.00,BKN,OVC,0.00,WeatherDisplay:10.37,2013-02-08 20:18:00,
2013-02-08 15:23:00,19.2,3.6,30.33,NNE,16,19.6,19.6,50,0.00,BKN,OVC,0.00,WeatherDisplay:10.37,2013-02-08 20:23:00,
2013-02-08 15:28:00,19.4,3.8,30.33,NNE,18,13.8,13.8,50,0.00,BKN,OVC,0.00,WeatherDisplay:10.37,2013-02-08 20:28:00,
2013-02-08 15:33:00,19.1,3.5,30.33,NNE,13,20.7,20.7,50,0.00,BKN,OVC,0.00,WeatherDisplay:10.37,2013-02-08 20:33:00,
2013-02-08 15:38:00,19.1,3.5,30.33,NNW,342,14.0,14.0,50,0.00,BKN,OVC,0.00,WeatherDisplay:10.37,2013-02-08 20:38:00,
2013-02-08 15:43:00,18.9,3.3,30.33,NNE,19,15.0,15.0,50,0.00,BKN,OVC,0.00,WeatherDisplay:10.37,2013-02-08 20:43:00,
2013-02-08 15:48:00,19.0,3.4,30.33,NNE,21,13.8,13.8,50,0.00,BKN,OVC,0.00,WeatherDisplay:10.37,2013-02-08 20:48:00,
2013-02-08 15:53:00,19.0,3.4,30.33,North,1,11.5,11.5,50,0.00,BKN,OVC,0.00,WeatherDisplay:10.37,2013-02-08 20:53:00,
2013-02-08 15:58:00,18.8,3.2,30.33,NNE,24,20.7,20.7,50,0.00,BKN,OVC,0.00,WeatherDisplay:10.37,2013-02-08 20:58:00,
2013-02-08 16:03:00,18.8,3.2,30.33,North,3,18.4,18.4,50,0.00,BKN,OVC,0.00,WeatherDisplay:10.37,2013-02-08 21:03:00,
2013-02-08 16:08:00,18.7,3.1,30.33,North,6,18.4,18.4,50,0.00,BKN,OVC,0.00,WeatherDisplay:10.37,2013-02-08 21:08:00,
2013-02-08 16:13:00,19.1,3.5,30.33,North,1,15.0,15.0,50,0.00,BKN,OVC,0.00,WeatherDisplay:10.37,2013-02-08 21:13:00,
2013-02-08 16:18:00,19.1,3.5,30.33,NNW,345,17.3,17.3,50,0.00,BKN,OVC,0.00,WeatherDisplay:10.37,2013-02-08 21:18:00,
2013-02-08 16:23:00,18.9,3.3,30.33,NNW,348,12.7,12.7,50,0.00,BKN,OVC,0.00,WeatherDisplay:10.37,2013-02-08 21:23:00,
2013-02-08 16:28:00,19.0,3.4,30.33,North,352,15.0,15.0,50,0.00,BKN,OVC,0.00,WeatherDisplay:10.37,2013-02-08 21:28:00,
2013-02-08 16:33:00,18.8,3.2,30.33,North,0,11.5,11.5,50,0.00,BKN,OVC,0.00,WeatherDisplay:10.37,2013-02-08 21:33:00,
2013-02-08 16:38:00,18.4,2.8,30.33,North,1,15.0,15.0,50,0.00,BKN,OVC,0.00,WeatherDisplay:10.37,2013-02-08 21:38:00,
2013-02-08 16:43:00,18.2,2.6,30.33,North,11,15.0,15.0,50,0.00,BKN,OVC,0.00,WeatherDisplay:10.37,2013-02-08 21:43:00,
2013-02-08 16:48:00,18.3,2.7,30.33,North,8,12.7,12.7,50,0.00,BKN,OVC,0.00,WeatherDisplay:10.37,2013-02-08 21:48:00,
2013-02-08 16:53:00,18.2,2.6,30.33,North,7,15.0,15.0,50,0.00,BKN,OVC,0.00,WeatherDisplay:10.37,2013-02-08 21:53:00,
2013-02-08 16:58:00,18.2,2.6,30.33,North,0,16.1,16.1,50,0.00,BKN,OVC,0.00,WeatherDisplay:10.37,2013-02-08 21:58:00,
2013-02-08 17:03:00,17.9,2.4,30.33,North,3,12.7,12.7,50,0.00,BKN,OVC,0.00,WeatherDisplay:10.37,2013-02-08 22:03:00,
2013-02-08 17:08:00,17.8,2.3,30.33,North,0,13.8,13.8,50,0.00,BKN,OVC,0.00,WeatherDisplay:10.37,2013-02-08 22:08:00,
2013-02-08 17:13:00,17.8,2.3,30.33,North,1,15.0,15.0,50,0.00,BKN,OVC,0.00,WeatherDisplay:10.37,2013-02-08 22:13:00,
2013-02-08 17:18:00,17.5,2.0,30.33,North,357,13.8,13.8,50,0.00,BKN,OVC,0.00,WeatherDisplay:10.37,2013-02-08 22:18:00,
2013-02-08 17:23:00,17.6,2.1,30.33,North,8,12.7,12.7,50,0.00,BKN,OVC,0.00,WeatherDisplay:10.37,2013-02-08 22:23:00,
2013-02-08 17:28:00,17.5,2.0,30.33,North,7,13.8,13.8,50,0.00,BKN,OVC,0.00,WeatherDisplay:10.37,2013-02-08 22:28:00,
2013-02-08 17:33:00,17.3,1.8,30.33,North,7,19.6,19.6,50,0.00,BKN,OVC,0.00,WeatherDisplay:10.37,2013-02-08 22:33:00,
2013-02-08 17:38:00,17.4,1.9,30.33,North,9,16.1,16.1,50,0.00,BKN,OVC,0.00,WeatherDisplay:10.37,2013-02-08 22:38:00,
2013-02-08 17:43:00,17.5,2.0,30.33,North,353,16.1,16.1,50,0.00,BKN,OVC,0.00,WeatherDisplay:10.37,2013-02-08 22:43:00,
2013-02-08 17:48:00,17.5,2.0,30.33,North,1,20.7,20.7,50,0.00,BKN,OVC,0.00,WeatherDisplay:10.37,2013-02-08 22:48:00,
2013-02-08 17:53:00,17.4,1.9,30.33,North,359,11.5,11.5,50,0.00,BKN,OVC,0.00,WeatherDisplay:10.37,2013-02-08 22:53:00,
2013-02-08 17:58:00,17.3,1.8,30.33,NNE,22,13.8,13.8,50,0.00,BKN,OVC,0.00,WeatherDisplay:10.37,2013-02-08 22:58:00,
2013-02-08 18:48:00,17.0,1.5,30.33,North,4,12.0,0.0,50,0.00,CLR,OVC,0.00,WeatherDisplay:10.37,2013-02-08 23:48:00,
2013-02-08 18:53:00,16.8,1.3,30.33,North,0,17.3,17.3,50,0.00,BKN,OVC,0.00,WeatherDisplay:10.37,2013-02-08 23:53:00,
2013-02-08 18:58:00,17.1,1.6,30.33,North,358,21.9,21.9,50,0.00,BKN,OVC,0.00,WeatherDisplay:10.37,2013-02-08 23:58:00,
2013-02-08 19:03:00,17.2,1.7,30.33,North,359,12.0,12.0,50,0.00,BKN,OVC,0.00,WeatherDisplay:10.37,2013-02-09 00:03:00,
2013-02-08 19:08:00,17.0,1.5,30.33,NNE,23,17.3,17.3,50,0.00,BKN,OVC,0.00,WeatherDisplay:10.37,2013-02-09 00:08:00,
2013-02-08 19:13:00,17.2,1.7,30.33,North,353,18.4,18.4,50,0.00,BKN,OVC,0.00,WeatherDisplay:10.37,2013-02-09 00:13:00,
2013-02-08 19:18:00,17.1,1.6,30.33,North,1,12.7,12.7,50,0.00,BKN,OVC,0.00,WeatherDisplay:10.37,2013-02-09 00:18:00,
2013-02-08 19:23:00,17.1,1.6,30.33,North,7,13.8,13.8,50,0.00,BKN,OVC,0.00,WeatherDisplay:10.37,2013-02-09 00:23:00,
2013-02-08 19:28:00,17.1,1.6,30.33,North,2,15.0,15.0,50,0.00,BKN,OVC,0.00,WeatherDisplay:10.37,2013-02-09 00:28:00,
2013-02-08 19:33:00,17.3,1.8,30.33,North,0,10.4,10.4,50,0.00,BKN,OVC,0.00,WeatherDisplay:10.37,2013-02-09 00:33:00,
2013-02-08 19:38:00,17.2,1.7,30.33,North,351,15.0,15.0,50,0.00,BKN,OVC,0.00,WeatherDisplay:10.37,2013-02-09 00:38:00,
2013-02-08 19:43:00,17.1,1.6,30.33,NNW,339,21.0,21.0,50,0.00,BKN,OVC,0.00,WeatherDisplay:10.37,2013-02-09 00:43:00,
2013-02-08 19:48:00,17.3,1.8,30.33,North,0,20.7,20.7,50,0.00,BKN,OVC,0.00,WeatherDisplay:10.37,2013-02-09 00:48:00,
2013-02-08 19:53:00,17.2,1.7,30.33,North,359,13.8,13.8,50,0.00,BKN,OVC,0.00,WeatherDisplay:10.37,2013-02-09 00:53:00,
2013-02-08 19:58:00,17.2,1.7,30.33,North,359,11.5,11.5,50,0.00,BKN,OVC,0.00,WeatherDisplay:10.37,2013-02-09 00:58:00,
2013-02-08 20:03:00,17.2,1.7,30.33,North,1,11.5,11.5,50,0.00,BKN,OVC,0.00,WeatherDisplay:10.37,2013-02-09 01:03:00,
2013-02-08 20:08:00,17.3,1.8,30.33,NNE,14,19.6,19.6,50,0.00,BKN,OVC,0.00,WeatherDisplay:10.37,2013-02-09 01:08:00,
2013-02-08 20:13:00,17.2,1.7,30.33,NNW,345,21.0,21.0,50,0.00,BKN,OVC,0.00,WeatherDisplay:10.37,2013-02-09 01:13:00,
2013-02-08 20:18:00,17.4,1.9,30.33,NNW,343,17.0,17.0,50,0.00,BKN,OVC,0.00,WeatherDisplay:10.37,2013-02-09 01:18:00,
2013-02-08 20:23:00,17.4,1.9,30.33,North,358,10.0,10.0,50,0.00,BKN,OVC,0.00,WeatherDisplay:10.37,2013-02-09 01:23:00,
2013-02-08 20:28:00,17.1,1.6,30.33,North,0,16.0,16.0,50,0.00,BKN,OVC,0.00,WeatherDisplay:10.37,2013-02-09 01:28:00,
2013-02-08 20:33:00,17.3,1.8,30.33,North,354,11.5,11.5,50,0.00,BKN,OVC,0.00,WeatherDisplay:10.37,2013-02-09 01:33:00,
2013-02-08 20:38:00,17.2,1.7,30.33,NNW,346,17.3,17.3,50,0.00,BKN,OVC,0.00,WeatherDisplay:10.37,2013-02-09 01:38:00,
2013-02-08 20:43:00,17.1,1.6,30.33,North,357,11.0,11.0,50,0.00,BKN,OVC,0.00,WeatherDisplay:10.37,2013-02-09 01:43:00,
2013-02-08 20:48:00,17.1,1.6,30.33,North,356,13.8,13.8,50,0.00,BKN,OVC,0.00,WeatherDisplay:10.37,2013-02-09 01:48:00,
2013-02-08 20:53:00,17.3,1.8,30.33,North,0,8.1,8.1,50,0.00,BKN,OVC,0.00,WeatherDisplay:10.37,2013-02-09 01:53:00,
2013-02-08 20:58:00,17.3,1.8,30.33,North,357,16.1,16.1,50,0.00,BKN,OVC,0.00,WeatherDisplay:10.37,2013-02-09 01:58:00,
2013-02-08 21:03:00,17.3,1.8,30.33,North,359,12.7,12.7,50,0.00,BKN,OVC,0.00,WeatherDisplay:10.37,2013-02-09 02:03:00,
2013-02-08 21:08:00,17.3,1.8,30.33,NNE,14,12.7,12.7,50,0.00,BKN,OVC,0.00,WeatherDisplay:10.37,2013-02-09 02:08:00,
2013-02-08 21:13:00,17.3,1.8,30.33,North,0,15.0,15.0,50,0.00,BKN,OVC,0.00,WeatherDisplay:10.37,2013-02-09 02:13:00,
2013-02-08 21:18:00,17.4,1.9,30.33,North,0,12.7,12.7,50,0.00,BKN,OVC,0.00,WeatherDisplay:10.37,2013-02-09 02:18:00,
2013-02-08 21:23:00,17.4,1.9,30.33,North,0,23.0,23.0,50,0.00,BKN,OVC,0.00,WeatherDisplay:10.37,2013-02-09 02:23:00,
2013-02-08 21:28:00,17.6,2.1,30.33,NNW,348,15.0,15.0,50,0.00,BKN,OVC,0.00,WeatherDisplay:10.37,2013-02-09 02:28:00,
2013-02-08 21:33:00,17.6,2.1,30.33,North,353,11.5,11.5,50,0.00,BKN,OVC,0.00,WeatherDisplay:10.37,2013-02-09 02:33:00,
2013-02-08 21:38:00,17.5,2.0,30.33,North,357,12.7,12.7,50,0.00,BKN,OVC,0.00,WeatherDisplay:10.37,2013-02-09 02:38:00,
2013-02-08 21:43:00,17.6,2.1,30.33,North,356,17.3,17.3,50,0.00,BKN,OVC,0.00,WeatherDisplay:10.37,2013-02-09 02:43:00,
2013-02-08 21:48:00,18.0,2.5,30.33,NNW,342,13.8,13.8,50,0.00,BKN,OVC,0.00,WeatherDisplay:10.37,2013-02-09 02:48:00,
2013-02-08 21:53:00,17.7,2.2,30.33,North,2,11.5,11.5,50,0.00,BKN,OVC,0.00,WeatherDisplay:10.37,2013-02-09 02:53:00,
2013-02-08 21:58:00,17.8,2.3,30.33,North,9,16.1,16.1,50,0.00,BKN,OVC,0.00,WeatherDisplay:10.37,2013-02-09 02:58:00,
2013-02-08 22:03:00,18.0,2.5,30.33,North,359,9.2,9.2,50,0.00,BKN,OVC,0.00,WeatherDisplay:10.37,2013-02-09 03:03:00,
2013-02-08 22:08:00,17.9,2.4,30.33,NNW,342,12.7,12.7,50,0.00,BKN,OVC,0.00,WeatherDisplay:10.37,2013-02-09 03:08:00,
2013-02-08 22:13:00,17.9,2.4,30.33,North,6,16.1,16.1,50,0.00,BKN,OVC,0.00,WeatherDisplay:10.37,2013-02-09 03:13:00,
2013-02-08 22:18:00,18.1,2.6,30.33,NNW,347,19.6,19.6,50,0.00,BKN,OVC,0.00,WeatherDisplay:10.37,2013-02-09 03:18:00,
2013-02-08 22:23:00,18.2,2.6,30.33,North,357,11.5,11.5,50,0.00,BKN,OVC,0.00,WeatherDisplay:10.37,2013-02-09 03:23:00,
2013-02-08 22:28:00,18.3,2.7,30.33,NNW,342,13.8,13.8,50,0.00,BKN,OVC,0.00,WeatherDisplay:10.37,2013-02-09 03:28:00,
2013-02-08 22:33:00,18.5,2.9,30.33,NNW,346,10.4,10.4,50,0.00,BKN,OVC,0.00,WeatherDisplay:10.37,2013-02-09 03:33:00,
2013-02-08 22:38:00,18.5,2.9,30.33,NNW,338,16.1,16.1,50,0.00,BKN,OVC,0.00,WeatherDisplay:10.37,2013-02-09 03:38:00,
2013-02-08 22:43:00,18.5,2.9,30.33,North,355,12.0,12.0,50,0.00,BKN,OVC,0.00,WeatherDisplay:10.37,2013-02-09 03:43:00,
2013-02-08 22:48:00,18.5,2.9,30.33,North,0,16.1,16.1,50,0.00,BKN,OVC,0.00,WeatherDisplay:10.37,2013-02-09 03:48:00,
2013-02-08 22:53:00,18.3,2.7,30.33,North,3,14.0,14.0,50,0.00,BKN,OVC,0.00,WeatherDisplay:10.37,2013-02-09 03:53:00,
2013-02-08 22:58:00,18.4,2.8,30.33,North,0,15.0,15.0,50,0.00,BKN,OVC,0.00,WeatherDisplay:10.37,2013-02-09 03:58:00,
2013-02-08 23:03:00,18.5,2.9,30.33,North,351,15.0,15.0,50,0.00,BKN,OVC,0.00,WeatherDisplay:10.37,2013-02-09 04:03:00,
2013-02-08 23:08:00,18.5,2.9,30.33,North,10,15.0,15.0,50,0.00,BKN,OVC,0.00,WeatherDisplay:10.37,2013-02-09 04:08:00,
2013-02-08 23:13:00,18.4,2.8,30.33,North,352,15.0,15.0,50,0.00,BKN,OVC,0.00,WeatherDisplay:10.37,2013-02-09 04:13:00,
2013-02-08 23:18:00,18.5,2.9,30.33,North,356,11.5,11.5,50,0.00,BKN,OVC,0.00,WeatherDisplay:10.37,2013-02-09 04:18:00,
2013-02-08 23:23:00,18.6,3.0,30.33,North,7,8.1,8.1,50,0.00,BKN,OVC,0.00,WeatherDisplay:10.37,2013-02-09 04:23:00,
2013-02-08 23:28:00,18.5,2.9,30.33,North,7,15.0,15.0,50,0.00,BKN,OVC,0.00,WeatherDisplay:10.37,2013-02-09 04:28:00,
2013-02-08 23:33:00,18.4,2.8,30.33,North,4,15.0,15.0,50,0.00,BKN,OVC,0.00,WeatherDisplay:10.37,2013-02-09 04:33:00,
2013-02-08 23:38:00,18.4,2.8,30.33,North,3,7.0,7.0,50,0.00,BKN,OVC,0.00,WeatherDisplay:10.37,2013-02-09 04:38:00,
2013-02-08 23:43:00,18.5,2.9,30.33,NNW,341,13.8,13.8,50,0.00,BKN,OVC,0.00,WeatherDisplay:10.37,2013-02-09 04:43:00,
2013-02-08 23:48:00,18.5,2.9,30.33,NNW,342,12.0,12.0,50,0.00,BKN,OVC,0.00,WeatherDisplay:10.37,2013-02-09 04:48:00,
2013-02-08 23:53:00,18.5,2.9,30.33,North,354,15.0,15.0,50,0.00,BKN,OVC,0.00,WeatherDisplay:10.37,2013-02-09 04:53:00,
2013-02-08 23:58:00,18.5,2.9,30.33,NNW,347,12.7,12.7,50,0.00,BKN,OVC,0.00,WeatherDisplay:10.37,2013-02-09 04:58:00,